Location: Newark
(29.4733°N, 82.6067°W)
Time: 12:25:17
(UTC+00:00)

N. Korean satellite - Visible Passes

Search period start: 21 September 2021 00:00
Search period end: 01 October 2021 00:00
Orbit: 448 x 498 km, 97.3° (Epoch: 20 September)

Date Brightness Start Highest point End Pass type
(mag) Time Alt. Az. Time Alt. Az. Time Alt. Az.
21 Sep 8.7 10:11:22 10° NE 10:14:30 29° E 10:17:40 10° SSE visible
22 Sep 9.9 09:45:14 10° ENE 09:46:40 12° E 09:48:08 10° ESE visible
23 Sep 6.5 10:48:40 10° N 10:52:13 68° WNW 10:55:47 10° SSW visible
24 Sep 7.9 10:21:04 10° NNE 10:24:29 42° E 10:27:54 10° S visible
25 Sep 9.7 09:54:16 10° NE 09:56:39 17° E 09:59:03 10° SE visible
27 Sep 7.1 10:30:49 10° NNE 10:34:22 61° E 10:37:57 10° S visible
28 Sep 9.2 10:03:38 10° NE 10:06:34 23° E 10:09:31 10° SSE visible
30 Sep 6.6 10:40:35 10° NNE 10:44:12 89° ESE 10:47:51 10° SSW visible
